GPS BIIF-10 (40730 NORAD) Tracking and Keplerian Element Data

This shows tracking and keplerian element data for the satellite.

Feedback or suggestion? Click here.




ElementValue
Catalog40730
NameGPS BIIF-10
Epoch Orbit4540
Epoch Day269.63398402
Epoch Year2021
RAAN337.2904
Inclination55.3627
Eccentricity0.0065087
Argument of Perigee1.0151
Mean Anonmoly359.0566
Mean Motion2.00565849
Decay Rate-8.6E-07
L11 40730U 15033A 21269.63398402 -.00000086 00000-0 00000-0 0 9996
L22 40730 55.3627 337.2904 0065087 1.0151 359.0566 2.00565849 45402

Live tracking and technical data element details for GPS BIIF-10 (NORAD 40730). GPS BIIF-10 can be tracked NOW for your location showing map with azimuth and elevation plus other details from your city location.

Track the satellite on the map from your city or location and see movement details for azimuth, elevation, latitude, longitude, range, height, and movement on the map or in text.







IsCatalogInMostPopularTable: catalog: 40730, numindb: 649
Update: records affected: 1



GetName: 40730 GPS BIIF-10

Hit Count: updated at: Tue, 28 Sep 2021 17:01:07 GMT